Regional Weather Roundup
Issued by NWS

Home | Current Version | Previous Version | Graphics & Text | Print | Product List | Glossary Off
Versions: 1 2 3 4 5 6 7 8 9 10 11 12 13 14 15 16 17 18 19 20 21 22 23 24 25 26 27 28 29 30 31 32 33 34 35 36 37 38 39 40 41 42 43 44 45 46 47 48 49 50

000
ASUS43 KMPX 132110
RWRMN
WEATHER ROUNDUP FOR MINNESOTA
NATIONAL WEATHER SERVICE TWIN CITIES/CHANHASSEN MN
300 PM CST SAT FEB 13 2016


NOTE: "FAIR" INDICATES FEW OR NO CLOUDS BELOW 12,000 FEET WITH NO
SIGNIFICANT WEATHER AND/OR OBSTRUCTIONS TO VISIBILITY. N/A MEANS
CURRENT SKY AND/OR WEATHER CONDITIONS ARE NOT AVAILABLE.

MNZ060>063-068>070-132200-
   Twin Cities Metro

CITY           SKY/WX    TMP DP  RH WIND       PRES   REMARKS
TWIN CITIES    SUNNY      9 -10  42 SE8       30.49F WCI  -3
ST PAUL        SUNNY      9  -8  46 S9        30.52F WCI  -4
CRYSTAL        SUNNY     12  -7  42 SE8       30.46F WCI   0
BLAINE         MOSUNNY   12  -8  40 SE6       30.47F WCI   3
LAKEVILLE      SUNNY      7  -8  51 SE6       30.48F WCI  -3
EDEN PRAIRIE   SUNNY     12  -6  44 SE9       30.46F WCI   0
SOUTH ST PAUL  SUNNY      9 -12  38 SE6       30.50F WCI  -1
LAKE ELMO      FAIR      12  -8  40 CALM      30.50F
$$
MNZ001>005-007-008-013>017-022>024-027-028-132200-
   Northwest Minnesota

CITY           SKY/WX    TMP DP  RH WIND       PRES   REMARKS
BEMIDJI        CLOUDY     8  -9  46 E10       30.34F WCI  -7
HALLOCK        SUNNY      9  -4  56 SE17      30.31F WCI -10
ROSEAU         CLOUDY     5  -6  61 E7        30.35F WCI  -7
WARROAD        CLOUDY     1  -8  66 N7        30.36F WCI -11
THIEF RVR FALL SUNNY      9 -11  40 SE14      30.32F WCI  -8
CROOKSTON      SUNNY      9  -4  56 S16       30.34F WCI  -9
FOSSTON        SUNNY     18  -4  38 SE9       30.31F WCI   6
DETROIT LAKES  SUNNY     10  -6  48 SE17      30.31F WCI  -7
MOORHEAD       CLOUDY    10   0  61 SE21      30.31F WCI  -9
PARK RAPIDS    SUNNY     11 -10  38 SE10      30.33F WCI  -3
MAHNOMEN       FAIR      12  -5  46 SE10      30.31F WCI  -2
$$
MNZ006-009>011-018-025>026-132200-
   North Central Minnesota

CITY           SKY/WX    TMP DP  RH WIND       PRES   REMARKS
BAUDETTE       CLOUDY     6 -13  41 SE8       30.36F WCI  -7
FLAG ISLAND    CLOUDY     0 -15  50 SE5       30.37F WCI -10
INTL FALLS     CLOUDY     5 -15  39 SE5       30.39F WCI  -4
WASKISH        SUNNY     12  -9  37 SE5       30.36F WCI   4
LONGVILLE      SUNNY     10 -13  34 S7        30.39F WCI   0
GRAND RAPIDS   SUNNY      7 -13  40 S9        30.39F WCI  -7
CRANE LAKE     SUNNY      5 -17  36 N5        30.43F WCI  -4
ORR            SUNNY      7 -17  33 CALM      30.36F
COOK           SUNNY      7 -17  33 CALM      30.39F
WALKER         FAIR       9 -10  42 E6        30.36F WCI  -1
$$
MNZ012-019>021-037-132200-
   Northeast Minnesota

CITY           SKY/WX    TMP DP  RH WIND       PRES   REMARKS
DULUTH         SUNNY      8 -13  37 CALM      30.39F
ELY            SUNNY      7 -11  43 CALM      30.38F
HIBBING        SUNNY      7 -14  37 NW5       30.38F WCI  -2
EVELETH        SUNNY      9 -15  33 CALM      30.40F
DULUTH HARBOR  SUNNY     10 -11  37 S7        30.49F WCI   0
TWO HARBORS    SUNNY     14  -8  37 SW6       30.40F WCI   5
SILVER BAY     SUNNY     10   0  61 SE7       30.40F WCI   0
GRAND MARAIS     N/A     10   1  67 SW10      30.48F WCI  -4
G MARAIS ARPRT SUNNY      7 -15  36 W3        30.34F
$$
MNZ029>031-032-039>041-046>048-054>057-064-132200-
   West Central Minnesota

CITY           SKY/WX    TMP DP  RH WIND       PRES   REMARKS
FERGUS FALLS   CLOUDY    10  -2  56 SE17      30.36F WCI  -7
WHEATON        CLOUDY    10   1  67 SE21      30.35F WCI  -9
MORRIS         CLOUDY    10   1  67 SE22      30.33F WCI  -9
ALEXANDRIA     CLOUDY    10  -5  50 SE15      30.34F WCI  -7
ELBOW LAKE     CLOUDY    10   0  61 SE20      30.34F WCI  -8
WADENA         SUNNY      9  -8  47 SE10      30.35F WCI  -6
GLENWOOD       SUNNY     12   0  57 SE14      30.35F WCI  -3
APPLETON       CLOUDY    10   0  61 S14       30.37F WCI  -5
BENSON         CLOUDY    12   0  57 S13       30.37F WCI  -3
ORTONVILLE     CLOUDY     9   0  66 SE17      30.33F WCI -10
MADISON        CLOUDY    10   1  67 SE21      30.36F WCI  -9
WILLMAR        FAIR      12   1  62 SE17      30.39F WCI  -5
$$
MNZ033>034-036-042>043-049>051-058-059-132200-
   Central Minnesota

CITY           SKY/WX    TMP DP  RH WIND       PRES   REMARKS
ST CLOUD       SUNNY      9  -6  50 SE13      30.43F WCI  -7
SAUK CENTRE    FAIR      10  -4  52 SE13      30.38F WCI  -5
PAYNESVILLE    SUNNY     12  -3  51 SE14      30.40F WCI  -4
AITKIN         SUNNY      9 -17  31 SE6       30.41F WCI  -1
PINE RIVER       N/A      7  -9  47 S8        30.41F WCI  -6
BRAINERD       SUNNY      7 -10  46 S7        30.41F WCI  -5
STAPLES        SUNNY      9 -11  40 E7        30.37F WCI  -3
LONG PRAIRIE   FAIR       9  -6  52 E12       30.39F WCI  -6
LITTLE FALLS   SUNNY      9  -8  47 SE8       30.42F WCI  -4
LITCHFIELD     CLOUDY    10  -2  56 SE12      30.42F WCI  -4
BUFFALO        SUNNY     11  -8  41 SE7       30.46F WCI   0
MAPLE LAKE     SUNNY     11  -5  48 SE9       30.45F WCI  -1
$$
MNZ037-044-045-052-053-132200-
   East Central Minnesota

CITY           SKY/WX    TMP DP  RH WIND       PRES   REMARKS
PRINCETON      SUNNY     10  -8  44 SE8       30.45F WCI  -1
MORA           SUNNY     10  -8  44 SE5       30.48F WCI   2
CAMBRIDGE      SUNNY     10  -4  52 CALM      30.46F
RUSH CITY      SUNNY      9 -10  42 S5        30.48F WCI   0
MOOSE LAKE     SUNNY     10 -13  34 SW3       30.43F
HINCKLEY       FAIR      10  -8  44 S3        30.47F
CLOQUET        SUNNY      9 -18  28 CALM      30.41F
MCGREGOR       SUNNY     10  -9  40 CALM      30.42F
$$
MNZ071>073-080-081-089-090-097-098-132200-
   Southwest Minnesota

CITY           SKY/WX    TMP DP  RH WIND       PRES   REMARKS
MONTEVIDEO     CLOUDY     9   0  66 S13       30.40F WCI  -7
GRANITE FALLS  CLOUDY    10   2  69 SE16      30.41F WCI  -7
CANBY          CLOUDY    14   4  64 E17       30.34F WCI  -3
MARSHALL       CLOUDY    10   0  63 S15       30.36F WCI  -7
REDWOOD FALLS  CLOUDY     7  -1  70 SE17      30.42F WCI -12
OLIVIA         CLOUDY    10   0  61 SE15      30.40F WCI  -6
PIPESTONE      CLOUDY    10  -4  52 S13G20    30.29F WCI  -5
WINDOM         CLOUDY     7   0  72 SE12      30.37F WCI  -9
WORTHINGTON    CLOUDY     7  -2  66 SE16      30.35F WCI -11
JACKSON        CLOUDY    10   0  61 SE9       30.38F WCI  -2
TRACY          CLOUDY    10   1  69 S13G18    30.37F WCI  -6
SLAYTON        CLOUDY     7   0  73 SE16      30.33F WCI -11
$$
MNZ065>067-074>077-082>085-091>093-132200-
   South Central Minnesota

CITY           SKY/WX    TMP DP  RH WIND       PRES   REMARKS
MANKATO        CLOUDY     7  -2  66 SE13      30.45F WCI  -9
NEW ULM        CLOUDY     7  -4  61 S14       30.44F WCI -10
ST JAMES       CLOUDY    10   3  72 SE14      30.44F WCI  -5
FAIRMONT       CLOUDY     9   0  66 SE16      30.42F WCI  -9
GLENCOE        SUNNY     12  -1  55 SE9       30.44F WCI  -1
FARIBAULT      SUNNY     10  -6  48 S3        30.47F
OWATONNA       SUNNY     10  -6  48 S8        30.45F WCI  -1
WASECA         CLOUDY    12   0  57 SE7       30.47F WCI   2
ALBERT LEA     CLOUDY     7  -6  56 SE7       30.45F WCI  -5
$$
MNZ078>079-086>088-094>096-132200-
   Southeast Minnesota

CITY           SKY/WX    TMP DP  RH WIND       PRES   REMARKS
ROCHESTER      SUNNY      5  -7  57 SE5       30.45F WCI  -4
RED WING       SUNNY     10 -11  37 SE3       30.51F
STANTON        SUNNY     10  -6  46 S3        30.47F
DODGE CENTER   SUNNY      9  -8  47 SE7       30.45F WCI  -3
WINONA         SUNNY     14  -6  41 CALM      30.53F
AUSTIN         CLOUDY     3  -8  60 SE6       30.46F WCI  -8
PRESTON        SUNNY      9 -10  42 CALM      30.47F
$$
ABBREVIATIONS USED IN REMARKS
   TC - TEMPERATURES IN CELSIUS
  WCI - WIND CHILL INDEX
   HX - HEAT INDEX
  VSB - VISIBILITY
$$



USA.gov is the U.S. government's official web portal to all federal, state and local government web resources and services.